ONEWEB-0210 (48787 NORAD) Tracking and Keplerian Element Data

This shows tracking and keplerian element data for the satellite.

Feedback or suggestion? Click here.




ElementValue
Catalog48787
NameONEWEB-0210
Epoch Orbit1065
Epoch Day210.91668981
Epoch Year2021
RAAN255.8738
Inclination87.5392
Eccentricity0.0011904
Argument of Perigee43.5825
Mean Anonmoly137.7295
Mean Motion14.40867183
Decay Rate-0.01387639
L11 48787U 21045W 21210.91668981 -.01387639 00000-0 -46313+0 0 9995
L22 48787 87.5392 255.8738 0011904 43.5825 137.7295 14.40867183 10658

Live tracking and technical data element details for ONEWEB-0210 (NORAD 48787). ONEWEB-0210 can be tracked NOW for your location showing map with azimuth and elevation plus other details from your city location.

Track the satellite on the map from your city or location and see movement details for azimuth, elevation, latitude, longitude, range, height, and movement on the map or in text.







IsCatalogInMostPopularTable: catalog: 48787, numindb: 16
Update: records affected: 1



GetName: 48787 ONEWEB-0210

Hit Count: updated at: Sat, 31 Jul 2021 15:37:09 GMT